Flag for U.S.A. Weather past 2 weeks in Columbus, Georgia, U.S.A.

Now
88 °F

Sunny.


Feels Like: 92 °F
Forecast: 70 / 92 °F
Wind: 5 mph from Northwest

Location: Columbus Metropolitan Airport

Current Time: Jul 7, 2015 at 8:45:32 PM

Latest Report: Jul 7, 2015 at 7:51 PM


Visibility: 10 mi

Pressure: 30.09 "Hg

Humidity: 52%

Dew point: 68 °F

Location of ColumbusLocation

Historic Weather in Columbus — Graph

°F

Columbus temperature yesterday

Maximum temperature yesterday: 86 °F (at 5:51 PM)
Minimum temperature yesterday: 71 °F (at 6:51 AM)
Average temperature yesterday: 76 °F

Past Weeks' High & Low Weather Summary

 TemperatureHumidityPressure
High96 °F (Jun 23, 4:51 PM)97% (Jun 28, 2:51 AM)30.18 "Hg (Jun 28, 2:51 AM)
Low66 °F (Jun 29, 6:51 AM)36% (Jun 23, 4:51 PM)29.85 "Hg (Jun 27, 4:51 PM)
Average79 °F74%30.03 "Hg
* Reported Jun 22 6:51 PM — Jul 7 6:51 PM, Columbus, Weather by CustomWeather, © 2015

Note: Actual official high and low records may vary slightly from our data, if they occured in-between our weather recording intervals... More about our weather records

Advertising

Columbus weather history for previous 24 hours

 ConditionsComfort  
Time TempWeatherWind HumidityBarometerVisibility
6:51 PM
Tue, Jul 7
90 °FSunny.7 mph47%30.08 "Hg10 mi
5:51 PM92 °FSunny.8 mph43%30.09 "Hg10 mi
4:51 PM90 °FPassing clouds.5 mph47%30.09 "Hg10 mi
3:51 PM90 °FPassing clouds.No wind48%30.10 "Hg10 mi
2:51 PM89 °FPassing clouds.5 mph52%30.12 "Hg10 mi
1:51 PM87 °FBroken clouds.7 mph55%30.14 "Hg10 mi
12:51 PM85 °FScattered clouds.5 mph61%30.15 "Hg10 mi
11:51 AM84 °FBroken clouds.6 mph63%30.16 "Hg10 mi
10:51 AM84 °FPassing clouds.9 mph65%30.16 "Hg10 mi
9:51 AM81 °FSunny.No wind72%30.16 "Hg10 mi
8:51 AM76 °FPassing clouds.No wind85%30.16 "Hg9 mi
7:51 AM72 °FSunny.No wind91%30.14 "Hg8 mi
6:51 AM70 °FClear.No wind93%30.13 "Hg8 mi
5:51 AM71 °FClear.No wind93%30.12 "Hg10 mi
4:51 AM71 °FClear.No wind93%30.11 "Hg10 mi
3:51 AM71 °FClear.3 mph93%30.11 "Hg10 mi
2:51 AM73 °FClear.No wind90%30.11 "Hg10 mi
1:51 AM72 °FClear.No wind93%30.10 "Hg10 mi
12:51 AM74 °FClear.No wind88%30.11 "Hg10 mi
11:51 PM
Mon, Jul 6
76 °FClear.No wind82%30.11 "Hg10 mi
10:51 PM76 °FClear.No wind85%30.09 "Hg10 mi
9:51 PM78 °FClear.No wind76%30.09 "Hg10 mi
8:51 PM79 °FSunny.6 mph74%30.08 "Hg10 mi
Weather by CustomWeather, © 2015

See weather overviewHow to use our weather pages